星链-6354 (STARLINK-6354 )

导读 | 豆包AI

STARLINK-6354是美国SpaceX公司星链(Starlink)星座的一员,于2023年5月31日发射,属于低轨卫星互联网星座组网卫星。该卫星运行在近地轨道,依托星链大规模部署的星间激光通信技术,可实现全球无缝覆盖的高速网络接入,为偏远地区、海洋、极地等区域提供宽带互联网服务,是SpaceX构建全球太空互联网基础设施的重要组成部分。

基本信息
目录编号:
56784
目录名称:
STARLINK-6354
国际标识:
2023-078T
轨道中心:
EARTH
卫星名称:
星链-6354
卫星全名:
星链-6354 (STARLINK-6354 )
卫星状态:
在轨 (已飞行1019 天)
发射日期:
2023-05-31 UTC
国别 :
美国 (US)
星等 :
--
轨道信息
数据来源 国际轨道数据
星历时间: 2026-03-15T23:35:34+0800
4小时前
查看轨道信息
半长轴: 6950.179km
偏心率: 0.0002391
轨道倾角: 69.999°
近地点辐角 260.885°
升交点赤经 309.536°
平近点角 99.204°
近地点: 570.38km
远地点: 573.704km
周期: 96.107分钟
每日圈数: 14.983345
详细信息
固有亮度:
5
最大亮度:
2.5
卫星平台:
Starlink v1.5
覆盖范围:
全球
运营商:
太空探索技术公司
运营商所在国:
美国
制造商(研发单位):
太空探索技术公司
制造商所在国:
美国
使用方式:
暂无
卫星简介
星链(Starlink)计划是由太空探索技术公司(SpaceX)提出的一个巨型低轨卫星互联网星座项目,计划在2019年至2024年间在太空搭建由约1.2万颗卫星组成的“星链”网络,其中1584颗将部署在地球上空550千米处的近地轨道,并从2020年开始工作。该卫星仍在工作。
2D轨道图
3D轨道图
轨道高度分析图
轨道倾角分析图
轨道综合分析图
查看轨道综合分析图